Weather History for Sault Ste Marie, MI

Change the Weather History Date:

Thursday, February 21, 2013

  Actual Average Record
Temperature  
Mean Temperature 11 °F 19 °F  
Max Temperature 20 °F 27 °F 42 °F (1990)
Min Temperature 1 °F 11 °F -17 °F (1936)
Degree Days  
Heating Degree Days 54 46  
Month to date heating degree days 1079 1010  
Since 1 July heating degree days 5462 5810  
Moisture  
Dew Point -1 °F    
Average Humidity 73    
Maximum Humidity 84    
Minimum Humidity 62    
Precipitation  
Precipitation 0.00 in 0.05 in 0.54 in (1937)
Month to date precipitation 2.44 1.00  
Year to date precipitation 5.73 3.19  
Snow  
Snow 0.00 in 0.60 in 5.20 in (1933)
Month to date snowfall 27.1 14.7  
Since 1 July snowfall 116.5 96.3  
Snow Depth 26.00 in    
Sea Level Pressure  
Sea Level Pressure 30.41 in    
Wind  
Wind Speed 5 mph (NW)    
Max Wind Speed 17 mph    
Max Gust Speed 23 mph    
Visibility 10 miles    
Events      
T = Trace of Precipitation, MM = Missing Value Source: NWS Daily Summary

Daily Weather History Graph

Daily Weather History Graph

Search for Another Location

Airport:

Trip Planner

Search our weather history database for the weather conditions in past years. The results will help you decide how hot, cold, wet, or windy it might be!

Date:

Astronomy

Feb. 21, 2013 Rise Set
Actual Time 7:30 AM EST 6:12 PM EST
Civil Twilight 6:59 AM EST 6:42 PM EST
Nautical Twilight 6:24 AM EST 7:17 PM EST
Astronomical Twilight 5:50 AM EST 7:52 PM EST
Moon 2:17 PM EST (2/21) 4:44 AM EST (2/21)
Length of Visible Light 11h 42m
Length of Day
10h 41m
Waxing Gibbous, 83% of the Moon is Illuminated
Feb 21
Waxing Gibbous
Feb 25
Full
Mar 4
Last Quarter
Mar 11
New
Mar 19
First Quarter

Hourly Weather History & Observations

Time (EST) Temp. Windchill Dew Point Humidity Pressure Visibility Wind Dir Wind Speed Gust Speed Precip Events Conditions
12:55 AM 3.0 °F -12.5 °F -6.0 °F 66% 30.33 in 10.0 mi North 10.4 mph - N/A   Mostly Cloudy
1:31 AM 3.0 °F -10.5 °F -7.1 °F 63% 30.29 in 10.0 mi NNW 8.1 mph - N/A   Scattered Clouds
1:41 AM 1.9 °F -13.8 °F -7.1 °F 66% 30.30 in 10.0 mi NNW 10.4 mph - N/A   Mostly Cloudy
1:55 AM 1.9 °F -11.8 °F -7.1 °F 66% 30.34 in 10.0 mi NW 8.1 mph - N/A   Scattered Clouds
2:55 AM 1.9 °F -10.6 °F -7.1 °F 66% 30.36 in 10.0 mi NNW 6.9 mph - N/A   Partly Cloudy
3:55 AM 1.9 °F -11.8 °F -7.1 °F 66% 30.36 in 10.0 mi NNW 8.1 mph - N/A   Clear
4:55 AM 1.9 °F -10.6 °F -7.1 °F 66% 30.38 in 10.0 mi NNW 6.9 mph - N/A   Partly Cloudy
5:37 AM 1.9 °F -10.6 °F -7.1 °F 66% 30.35 in 10.0 mi NNW 6.9 mph - N/A   Mostly Cloudy
5:55 AM 1.9 °F -12.9 °F -6.0 °F 69% 30.40 in 10.0 mi North 9.2 mph - N/A   Overcast
6:23 AM 1.9 °F -11.8 °F -7.1 °F 66% 30.36 in 10.0 mi NW 8.1 mph - N/A   Mostly Cloudy
6:55 AM 1.9 °F -11.8 °F -7.1 °F 66% 30.43 in 10.0 mi NNW 8.1 mph - N/A   Scattered Clouds
7:55 AM 1.9 °F -7.6 °F -6.0 °F 69% 30.45 in 10.0 mi NW 4.6 mph - N/A   Scattered Clouds
8:55 AM 3.9 °F -8.2 °F -5.1 °F 66% 30.48 in 10.0 mi NNW 6.9 mph - N/A   Mostly Cloudy
9:09 AM 3.9 °F -6.9 °F -5.1 °F 66% 30.43 in 10.0 mi NNW 5.8 mph - N/A   Overcast
9:25 AM 3.9 °F -6.9 °F -5.1 °F 66% 30.43 in 10.0 mi NNW 5.8 mph - N/A   Overcast
9:55 AM 5.0 °F -6.9 °F -4.0 °F 66% 30.48 in 10.0 mi NNW 6.9 mph - N/A   Overcast
10:55 AM 7.0 °F -3.3 °F -2.0 °F 67% 30.45 in 10.0 mi North 5.8 mph - N/A   Mostly Cloudy
11:55 AM 9.0 °F - 1.0 °F 70% 30.43 in 10.0 mi Calm Calm - N/A   Clear
12:55 PM 14.0 °F 5.1 °F 3.9 °F 64% 30.44 in 10.0 mi SW 5.8 mph - N/A   Clear
1:55 PM 12.9 °F 0.7 °F 5.0 °F 71% 30.46 in 10.0 mi WSW 9.2 mph - N/A   Scattered Clouds
2:55 PM 16.0 °F 7.4 °F 6.1 °F 65% 30.47 in 10.0 mi WNW 5.8 mph - N/A   Scattered Clouds
3:55 PM 18.0 °F 12.7 °F 8.1 °F 65% 30.45 in 10.0 mi NNW 3.5 mph - N/A   Clear
4:55 PM 19.9 °F - 8.1 °F 60% 30.43 in 10.0 mi Calm Calm - N/A   Clear
5:55 PM 16.0 °F - 7.0 °F 68% 30.42 in 10.0 mi Calm Calm - N/A   Clear
6:55 PM 10.0 °F 0.4 °F 5.0 °F 80% 30.45 in 10.0 mi WSW 5.8 mph - N/A   Clear
7:55 PM 12.9 °F 6.9 °F 8.1 °F 81% 30.43 in 10.0 mi NNW 3.5 mph - N/A   Clear
8:55 PM 9.0 °F - 3.9 °F 80% 30.43 in 10.0 mi Calm Calm - N/A   Clear
9:55 PM 10.9 °F - 5.0 °F 77% 30.40 in 10.0 mi Calm Calm - N/A   Clear
10:55 PM 10.0 °F - 3.9 °F 76% 30.40 in 10.0 mi Calm Calm - N/A   Clear
11:55 PM 10.0 °F - 3.9 °F 76% 30.40 in 10.0 mi Calm Calm - N/A   Clear